This is the latest recevied weather packets stored in our database for station/object WB0RXX. If no packets are shown the sender has not sent any weather packets the latest 10 day(s).
| Time | Temp. | Humidity | Pressure | Rain* | Wind** | Luminosity | Snow |
|---|---|---|---|---|---|---|---|
| 1777902603 | 12.78° C | 59% | 1001.4 hPa | 0 mm | - | - | - |
| 1777902003 | 12.22° C | 61% | 1001.5 hPa | 0 mm | - | - | - |
| 1777901404 | 12.22° C | 60% | 1001.4 hPa | 0 mm | - | - | - |
| 1777900803 | 12.22° C | 62% | 1001.2 hPa | 0 mm | - | - | - |
| 1777900202 | 11.67° C | 66% | 1001.2 hPa | 0 mm | - | - | - |
| 1777899609 | 11.67° C | 67% | 1001.3 hPa | 0 mm | - | - | - |
| 1777899004 | 11.11° C | 67% | 1001.2 hPa | 0 mm | - | - | - |
| 1777898405 | 11.11° C | 68% | 1001.2 hPa | 0 mm | - | - | - |
| 1777897803 | 11.11° C | 68% | 1001.1 hPa | 0 mm | - | - | - |
| 1777897218 | 11.11° C | 67% | 1000.9 hPa | 0 mm | - | - | - |
| 1777896618 | 11.11° C | 68% | 1000.6 hPa | 0 mm | - | - | - |
| 1777896003 | 11.11° C | 68% | 1000.6 hPa | 0 mm | - | - | - |
| 1777895403 | 11.11° C | 67% | 1000.4 hPa | 0 mm | - | - | - |
| 1777894804 | 11.11° C | 65% | 1000.2 hPa | 0 mm | - | - | - |
| 1777894204 | 11.67° C | 64% | 999.9 hPa | 0 mm | - | - | - |
| 1777893604 | 11.67° C | 64% | 999.8 hPa | 0 mm | - | - | - |
| 1777893003 | 12.22° C | 63% | 999.8 hPa | 0 mm | - | - | - |
| 1777892405 | 12.78° C | 61% | 999.5 hPa | 0 mm | - | - | - |
| 1777891803 | 13.33° C | 58% | 999.6 hPa | 0 mm | - | - | - |
| 1777891205 | 14.44° C | 54% | 999.1 hPa | 0 mm | - | - | - |
| 1777890604 | 15.56° C | 52% | 998.5 hPa | 0 mm | - | - | - |
| 1777890004 | 15.56° C | 50% | 998.4 hPa | 0 mm | - | - | - |
| 1777889419 | 15.56° C | 48% | 998.3 hPa | 0 mm | - | - | - |
| 1777888804 | 15.56° C | 46% | 998.4 hPa | 0 mm | - | - | - |
| 1777888204 | 16.11° C | 44% | 998.4 hPa | 0 mm | - | - | - |
* Rain latest hour (hover to see other rain measurements)
** Current wind speed in m/s (hover to see current wind gust speed)